Tracking 25709 objects as of 24-May-2022
HD Live streaming from Space Station
objects crossing your sky now

ONEWEB-0254

Track ONEWEB-0254 now!
10-day predictions
ONEWEB-0254 is classified as:


NORAD ID: 48972
Int'l Code: 2021-061F
Perigee: 1,203.6 km
Apogee: 1,206.2 km
Inclination: 87.9 °
Period: 109.4 minutes
Semi major axis: 7575 km
RCS: Unknown
Launch date: July 1, 2021
Source: United Kingdom (UK)
Launch site: VOSTOCHNY COSMODROME (VOSTO)
aabbcc
Your satellite tracking list
Your tracking list is empty




NASA's NSSDC Master Catalog

Two Line Element Set (TLE):
1 48972U 21060F   22144.55647629 -.00000060  00000-0 -19148-3 0  9990
2 48972  87.9107 164.2827 0001675  78.0839 282.0480 13.16592400 44236
Source of the keplerian elements: AFSPC